�N����,����,�~����,�C��,���x,�C��,����,���ϕ���,�ő�u�ԕ���,�ő厞����,���˗�,�I�_���x,�n�����x,�ő啗���N��,DTYPE
"23/09/26","00:10",0.0,19.9,83.9,1011.2,318.7,0.8,1.3,336.2,0.00,17.1,23.4,"00:00:56",1
"23/09/26","00:20",0.0,19.8,84.5,1010.9,320.1,0.8,1.7,313.1,0.00,17.2,23.2,"00:13:20",1
"23/09/26","00:30",0.0,19.7,84.8,1011.2,313.9,1.1,1.7,306.9,0.00,17.1,23.3,"00:26:16",1
"23/09/26","00:40",0.0,19.8,84.7,1011.2,316.4,0.8,1.3,323.3,0.00,17.2,23.2,"00:36:08",1
"23/09/26","00:50",0.0,19.7,84.5,1011.4,321.3,0.7,1.3,322.9,0.00,17.1,23.1,"00:42:24",1
"23/09/26","01:00",0.0,19.5,84.8,1011.2,333.1,1.1,1.6,328.8,0.00,16.9,23.2,"00:55:52",1
"23/09/26","01:10",0.0,19.2,85.3,1011.2,324.8,0.7,1.2,322.4,0.00,16.7,23.1,"01:05:36",1
"23/09/26","01:20",0.0,19.1,86.0,1011.2,315.0,0.7,1.3,328.5,0.00,16.7,23.0,"01:13:28",1
"23/09/26","01:30",0.0,19.3,86.4,1011.2,329.7,1.1,1.8,333.8,0.00,17.0,23.0,"01:21:04",1
"23/09/26","01:40",0.0,19.4,86.4,1011.2,325.3,1.0,1.2,336.8,0.00,17.1,23.2,"01:30:16",1
"23/09/26","01:50",0.0,19.2,86.7,1010.7,326.0,0.6,1.1,350.5,0.00,17.0,22.8,"01:41:52",1
"23/09/26","02:00",0.0,19.0,87.1,1011.2,327.8,1.0,1.2,338.0,0.00,16.8,22.9,"01:50:40",1
"23/09/26","02:10",0.0,18.8,87.4,1010.9,298.6,0.7,1.3,321.2,0.00,16.7,23.0,"02:00:16",1
"23/09/26","02:20",0.0,19.0,87.8,1010.7,321.5,0.8,1.6,319.4,0.00,17.0,22.9,"02:15:12",1
"23/09/26","02:30",0.0,19.0,88.0,1010.9,316.4,1.1,1.3,327.5,0.00,17.0,22.7,"02:21:20",1
"23/09/26","02:40",0.0,18.9,88.5,1010.9,327.2,1.1,1.7,339.7,0.00,17.0,22.7,"02:32:16",1
"23/09/26","02:50",0.0,18.8,88.8,1011.2,292.6,0.7,1.2,325.3,0.00,17.0,22.9,"02:43:36",1
"23/09/26","03:00",0.0,18.9,89.1,1010.7,300.7,1.0,1.3,320.2,0.00,17.1,22.6,"02:57:52",1
"23/09/26","03:10",0.0,19.0,89.3,1010.9,314.3,0.8,1.3,333.3,0.00,17.2,22.6,"03:04:56",1
"23/09/26","03:20",0.0,19.0,89.6,1010.9,314.2,1.0,1.3,334.1,0.00,17.3,22.7,"03:16:48",1
"23/09/26","03:30",0.0,19.2,89.9,1010.7,299.8,0.7,1.4,333.1,0.00,17.5,22.7,"03:20:32",1
"23/09/26","03:40",0.0,19.2,90.1,1010.9,305.3,0.8,1.2,268.4,0.00,17.6,22.6,"03:31:12",1
"23/09/26","03:50",0.0,19.2,90.3,1010.9,321.8,0.5,1.0,339.7,0.00,17.6,22.8,"03:41:44",1
"23/09/26","04:00",0.0,19.2,90.5,1010.9,321.8,1.0,1.2,322.3,0.00,17.6,22.5,"03:50:56",1
"23/09/26","04:10",0.0,19.5,90.8,1010.9,330.7,1.3,1.8,334.3,0.00,18.0,22.5,"04:07:04",1
"23/09/26","04:20",0.0,19.5,91.1,1010.7,317.8,1.1,1.6,332.6,0.00,18.0,22.6,"04:19:12",1
"23/09/26","04:30",0.0,19.6,91.2,1010.7,313.5,0.5,1.2,314.7,0.00,18.2,22.6,"04:20:08",1
"23/09/26","04:40",0.0,19.7,91.4,1010.9,313.1,0.8,1.2,314.7,0.00,18.3,22.5,"04:34:32",1
"23/09/26","04:50",0.0,19.9,91.5,1010.9,314.5,0.8,1.4,312.9,0.00,18.5,22.6,"04:45:04",1
"23/09/26","05:00",0.0,19.8,91.4,1010.4,316.7,0.7,1.1,323.5,0.00,18.4,22.6,"04:55:44",1
"23/09/26","05:10",0.0,19.8,91.4,1010.7,315.8,0.3,0.6,331.8,0.00,18.4,22.4,"05:02:24",1
"23/09/26","05:20",0.0,19.7,91.4,1010.7,319.4,0.7,1.1,333.1,0.00,18.3,22.4,"05:16:40",1
"23/09/26","05:30",0.0,19.5,91.6,1010.7,323.2,1.1,1.6,326.6,0.00,18.1,22.5,"05:25:20",1
"23/09/26","05:40",0.0,19.5,91.7,1010.4,331.3,1.0,1.3,334.6,0.00,18.2,22.6,"05:32:00",1
"23/09/26","05:50",0.0,19.4,91.7,1010.7,294.4,0.6,1.0,316.9,0.00,18.1,22.6,"05:40:08",1
"23/09/26","06:00",0.0,19.3,91.8,1010.7,306.3,0.8,1.1,318.5,0.00,18.0,22.6,"05:53:20",1
"23/09/26","06:10",0.0,19.4,91.9,1010.9,291.4,0.6,0.8,294.7,0.00,18.1,22.5,"06:01:52",1
"23/09/26","06:20",0.0,19.6,92.0,1011.2,299.4,0.8,1.1,273.3,0.00,18.3,22.5,"06:13:12",1
"23/09/26","06:30",0.0,20.1,92.1,1011.2,315.5,1.1,1.4,319.6,0.00,18.8,22.4,"06:26:56",1
"23/09/26","06:40",0.0,20.4,92.0,1010.9,309.5,1.0,1.3,323.7,0.00,19.1,22.5,"06:32:56",1
"23/09/26","06:50",0.0,20.5,91.9,1011.2,310.3,1.2,1.4,307.3,0.01,19.2,22.5,"06:45:20",1
"23/09/26","07:00",0.0,20.7,91.9,1010.7,339.5,0.8,1.2,334.7,0.01,19.4,22.5,"06:50:32",1
"23/09/26","07:10",0.0,21.0,91.6,1010.7,323.4,1.1,1.4,329.1,0.02,19.6,22.4,"07:09:12",1
"23/09/26","07:20",0.0,21.2,91.2,1010.4,319.0,1.1,1.4,313.3,0.03,19.7,22.4,"07:17:44",1
"23/09/26","07:30",0.0,21.5,90.8,1010.7,315.1,1.0,1.4,328.8,0.02,20.0,22.7,"07:26:40",1
"23/09/26","07:40",0.0,22.2,90.4,1010.4,288.7,0.6,1.2,252.4,0.09,20.6,22.5,"07:38:24",1
"23/09/26","07:50",0.0,23.2,88.2,1010.4,267.1,0.7,1.9,341.3,0.19,21.2,22.4,"07:40:02",1
"23/09/26","08:00",0.0,24.5,83.1,1010.7,332.7,0.6,1.7,338.2,0.20,21.5,22.6,"07:50:56",1
"23/09/26","08:10",0.0,25.4,76.7,1010.2,186.5,0.1,0.9,159.8,0.09,21.1,22.7,"08:04:56",1
"23/09/26","08:20",0.0,25.5,73.3,1010.0,206.7,0.2,0.9,175.7,0.07,20.4,22.5,"08:10:48",1
"23/09/26","08:30",0.0,25.5,72.1,1010.0,183.2,0.3,1.0,97.8,0.09,20.1,22.7,"08:25:04",1
"23/09/26","08:40",0.0,25.7,71.0,1010.2,338.9,0.6,1.6,338.6,0.07,20.1,22.5,"08:34:16",1
"23/09/26","08:50",0.0,25.8,70.9,1009.7,298.4,0.3,1.2,358.1,0.12,20.2,22.6,"08:49:28",1
"23/09/26","09:00",0.0,26.3,68.5,1009.7,19.0,0.6,1.4,343.3,0.18,20.1,22.7,"08:51:20",1
"23/09/26","09:10",0.0,26.7,66.8,1009.3,14.1,0.6,1.7,109.9,0.16,20.1,22.7,"09:01:20",1
"23/09/26","09:20",0.0,26.7,66.0,1009.3,122.5,0.5,1.2,119.6,0.13,19.9,22.8,"09:18:00",1
"23/09/26","09:30",0.0,26.8,66.4,1009.5,107.9,0.5,1.4,176.4,0.14,20.1,23.1,"09:25:44",1
"23/09/26","09:40",0.0,26.9,64.2,1009.5,46.5,0.6,1.8,46.6,0.17,19.6,23.0,"09:37:52",1
"23/09/26","09:50",0.0,27.2,63.6,1009.3,48.7,0.7,2.1,336.0,0.15,19.7,23.0,"09:48:40",1
"23/09/26","10:00",0.0,27.3,63.6,1009.5,52.1,0.5,1.4,33.7,0.14,19.8,22.8,"09:54:24",1
"23/09/26","10:10",0.0,27.4,62.6,1009.5,47.6,0.7,2.1,30.2,0.15,19.7,22.9,"10:07:12",1
"23/09/26","10:20",0.0,27.3,62.3,1009.0,54.6,0.7,1.7,30.0,0.13,19.5,23.2,"10:13:12",1
"23/09/26","10:30",0.0,27.2,61.7,1009.0,76.3,0.7,2.0,136.0,0.12,19.3,23.0,"10:23:20",1
"23/09/26","10:40",0.0,27.2,62.0,1008.8,99.6,0.7,1.8,97.8,0.15,19.3,23.0,"10:35:36",1
"23/09/26","10:50",0.0,27.4,63.3,1008.8,131.9,0.6,1.9,110.1,0.13,19.9,23.2,"10:43:44",1
"23/09/26","11:00",0.0,27.2,62.2,1008.3,127.5,0.7,2.0,97.8,0.13,19.4,23.1,"10:51:36",1
"23/09/26","11:10",0.0,27.4,62.3,1008.6,142.5,0.7,2.7,50.6,0.15,19.6,23.2,"11:06:16",1
"23/09/26","11:20",0.0,27.7,61.3,1008.8,81.2,0.8,1.4,38.9,0.16,19.6,23.4,"11:15:28",1
"23/09/26","11:30",0.0,28.1,60.5,1008.8,45.4,0.7,2.2,12.1,0.20,19.8,23.2,"11:28:16",1
"23/09/26","11:40",0.0,28.8,58.8,1008.6,152.8,0.8,2.1,95.2,0.38,20.0,23.2,"11:38:48",1
"23/09/26","11:50",0.0,29.8,55.5,1009.3,97.7,1.0,2.2,19.3,0.44,20.0,23.6,"11:47:20",1
"23/09/26","12:00",0.0,30.3,55.7,1009.5,79.2,0.8,2.1,199.7,0.44,20.5,23.7,"11:58:56",1
"23/09/26","12:10",0.0,30.5,53.9,1010.0,67.5,1.1,2.7,11.8,0.45,20.2,23.5,"12:03:44",1
"23/09/26","12:20",0.0,29.4,54.0,1009.7,175.1,1.5,3.2,166.5,0.29,19.2,23.7,"12:18:40",1
"23/09/26","12:30",0.0,29.2,56.8,1009.3,167.0,1.0,2.7,143.0,0.23,19.8,23.7,"12:21:04",1
"23/09/26","12:40",0.0,30.0,52.1,1009.3,96.0,0.6,1.8,124.2,0.34,19.1,23.8,"12:30:40",1
"23/09/26","12:50",0.0,29.7,51.7,1009.5,213.6,2.1,4.1,216.5,0.40,18.7,24.0,"12:46:56",1
"23/09/26","13:00",0.0,30.3,49.6,1009.3,355.1,0.8,1.9,38.7,0.37,18.6,24.0,"12:59:44",1
"23/09/26","13:10",0.0,30.9,49.2,1009.3,60.1,1.0,2.1,26.7,0.36,19.1,23.9,"13:01:12",1
"23/09/26","13:20",0.0,31.2,48.5,1009.3,124.5,0.8,2.6,56.1,0.40,19.1,24.2,"13:15:44",1
"23/09/26","13:30",0.0,30.6,49.6,1008.8,263.3,1.2,2.2,232.2,0.28,18.9,24.3,"13:27:04",1
"23/09/26","13:40",0.0,31.1,50.4,1008.8,280.2,0.8,3.2,227.6,0.34,19.6,24.3,"13:37:28",1
"23/09/26","13:50",0.0,31.0,50.3,1008.8,195.5,1.3,3.4,234.6,0.39,19.5,24.3,"13:45:20",1
"23/09/26","14:00",0.0,31.7,49.1,1008.8,126.6,1.0,2.5,9.1,0.41,19.8,24.5,"13:51:20",1
"23/09/26","14:10",0.0,32.1,46.9,1009.3,141.8,0.7,2.6,37.9,0.38,19.4,24.5,"14:09:44",1
"23/09/26","14:20",0.0,32.2,46.2,1009.0,14.5,1.0,2.5,355.3,0.36,19.2,24.6,"14:13:52",1
"23/09/26","14:30",0.0,32.4,47.3,1009.0,124.0,0.6,1.9,122.1,0.30,19.8,24.5,"14:25:04",1
"23/09/26","14:40",0.0,32.6,46.0,1008.8,188.6,0.8,2.1,203.7,0.36,19.5,24.8,"14:36:48",1
"23/09/26","14:50",0.0,32.6,46.1,1008.6,218.1,0.8,2.6,353.4,0.31,19.6,24.6,"14:49:36",1
"23/09/26","15:00",0.0,32.0,48.4,1008.3,5.7,1.0,3.3,332.4,0.18,19.8,24.7,"14:51:20",1
"23/09/26","15:10",0.0,31.6,49.5,1007.6,344.3,0.5,1.7,29.2,0.12,19.8,24.9,"15:03:52",1
"23/09/26","15:20",0.0,32.0,51.9,1007.4,93.5,0.3,1.3,13.4,0.20,20.9,24.9,"15:12:08",1
"23/09/26","15:30",0.0,30.9,50.4,1006.9,188.9,1.3,3.1,228.9,0.10,19.4,25.2,"15:21:44",1
"23/09/26","15:40",0.0,31.1,49.8,1006.9,260.1,0.7,2.0,235.6,0.13,19.4,25.0,"15:31:36",1
"23/09/26","15:50",0.0,31.3,49.9,1006.9,353.6,1.0,1.9,196.2,0.13,19.6,25.1,"15:45:52",1
"23/09/26","16:00",0.0,30.8,49.5,1006.7,217.2,1.2,3.5,231.6,0.10,19.1,24.7,"15:58:32",1
"23/09/26","16:10",0.0,30.6,50.5,1006.0,201.9,1.0,2.1,232.7,0.08,19.2,25.0,"16:06:40",1
"23/09/26","16:20",0.0,30.4,50.6,1005.7,313.0,0.6,1.2,235.3,0.06,19.0,24.9,"16:10:32",1
"23/09/26","16:30",0.0,29.9,53.7,1005.7,164.1,0.7,2.2,229.2,0.02,19.5,25.0,"16:24:00",1
"23/09/26","16:40",0.0,29.2,55.5,1005.7,133.3,0.1,0.8,127.8,0.01,19.4,25.0,"16:30:48",1
"23/09/26","16:50",0.0,29.2,58.7,1005.5,296.3,0.2,1.2,348.2,0.02,20.3,24.9,"16:47:52",1
"23/09/26","17:00",0.0,28.9,60.8,1005.0,327.7,0.8,1.8,337.8,0.02,20.6,25.1,"16:56:24",1
"23/09/26","17:10",0.0,28.7,62.6,1005.0,342.5,0.8,1.6,350.3,0.01,20.9,24.9,"17:06:32",1
"23/09/26","17:20",0.0,28.3,63.8,1005.0,359.4,0.5,1.4,358.2,0.00,20.8,24.9,"17:10:24",1
"23/09/26","17:30",0.0,27.9,64.9,1005.5,287.1,0.5,1.0,341.7,0.00,20.7,25.0,"17:21:20",1
"23/09/26","17:40",0.0,27.5,66.7,1005.5,321.0,0.7,1.2,318.6,0.00,20.8,24.9,"17:34:00",1
"23/09/26","17:50",0.0,27.2,67.2,1005.5,315.9,0.8,1.9,347.6,0.00,20.6,24.9,"17:40:08",1
"23/09/26","18:00",0.0,26.9,68.2,1006.0,342.7,0.3,1.2,329.5,0.00,20.6,25.0,"17:54:40",1
"23/09/26","18:10",0.0,26.7,69.0,1005.7,351.7,0.6,1.3,1.0,0.00,20.6,24.8,"18:02:40",1
"23/09/26","18:20",0.0,26.4,70.7,1006.0,336.4,0.8,1.6,347.2,0.00,20.7,24.9,"18:19:44",1
"23/09/26","18:30",0.0,26.1,72.2,1006.0,322.9,0.7,1.4,324.0,0.00,20.7,24.8,"18:20:16",1
"23/09/26","18:40",0.0,26.0,73.0,1005.7,340.0,0.8,1.7,337.6,0.00,20.8,24.8,"18:38:16",1
"23/09/26","18:50",0.0,25.7,74.1,1006.2,326.2,1.1,1.9,331.1,0.00,20.8,24.8,"18:47:52",1
"23/09/26","19:00",0.0,25.7,74.3,1006.2,331.5,1.0,1.8,328.2,0.00,20.8,24.8,"18:52:24",1
"23/09/26","19:10",0.0,25.5,74.7,1006.2,310.7,0.6,1.3,349.3,0.00,20.7,24.8,"19:05:12",1
"23/09/26","19:20",0.0,25.3,75.1,1006.7,312.2,0.6,1.0,330.3,0.00,20.6,24.7,"19:17:28",1
"23/09/26","19:30",0.0,25.2,75.7,1006.7,321.4,0.8,1.9,314.2,0.00,20.6,24.6,"19:26:48",1
"23/09/26","19:40",0.0,25.2,75.8,1006.9,313.2,1.0,1.3,328.4,0.00,20.7,24.7,"19:30:08",1
"23/09/26","19:50",0.0,25.1,76.4,1007.1,335.5,0.8,1.3,338.3,0.00,20.7,24.5,"19:40:32",1
"23/09/26","20:00",0.0,25.0,77.5,1006.9,309.1,0.3,1.0,344.1,0.00,20.8,24.5,"19:51:12",1
"23/09/26","20:10",0.0,24.5,78.1,1007.4,294.4,0.3,0.9,313.7,0.00,20.5,24.5,"20:07:52",1
"23/09/26","20:20",0.0,24.5,78.4,1007.1,329.8,1.0,1.3,343.4,0.00,20.5,24.6,"20:12:24",1
"23/09/26","20:30",0.0,24.6,78.3,1007.4,327.5,0.8,1.6,343.4,0.00,20.6,24.5,"20:26:16",1
"23/09/26","20:40",0.0,24.4,78.7,1007.4,330.1,0.8,1.3,343.0,0.00,20.5,24.5,"20:32:00",1
"23/09/26","20:50",0.0,24.4,78.9,1007.6,304.0,0.5,1.1,331.6,0.00,20.5,24.6,"20:45:28",1
"23/09/26","21:00",0.0,24.4,78.9,1007.1,329.6,0.8,1.3,341.0,0.00,20.5,24.3,"20:53:12",1
"23/09/26","21:10",0.0,24.2,79.6,1007.6,335.2,0.7,1.3,348.2,0.00,20.5,24.6,"21:02:16",1
"23/09/26","21:20",0.0,23.9,80.5,1007.6,326.8,0.2,0.6,267.4,0.00,20.4,24.4,"21:18:00",1
"23/09/26","21:30",0.0,23.8,81.4,1007.8,343.1,0.8,1.1,351.0,0.00,20.5,24.6,"21:25:28",1
"23/09/26","21:40",0.0,23.6,81.9,1007.6,321.6,0.6,1.0,318.9,0.00,20.4,24.4,"21:30:08",1
"23/09/26","21:50",0.0,23.6,82.4,1007.6,331.0,0.8,1.4,338.2,0.00,20.5,24.2,"21:47:04",1
"23/09/26","22:00",0.0,23.5,82.6,1007.6,294.6,0.5,0.8,335.4,0.00,20.4,24.4,"21:50:08",1
"23/09/26","22:10",0.0,23.5,82.6,1007.4,302.3,0.8,1.3,318.6,0.00,20.4,24.4,"22:05:04",1
"23/09/26","22:20",0.0,23.7,82.2,1007.6,301.1,0.7,1.2,322.8,0.00,20.5,24.2,"22:10:32",1
"23/09/26","22:30",0.0,23.7,81.7,1007.6,307.9,0.8,1.3,332.9,0.00,20.4,24.3,"22:24:32",1
"23/09/26","22:40",0.0,23.7,81.4,1007.4,290.3,0.5,0.9,256.4,0.00,20.4,24.1,"22:39:52",1
"23/09/26","22:50",0.0,23.6,81.5,1007.6,306.0,0.7,1.1,268.3,0.00,20.3,24.4,"22:40:16",1
"23/09/26","23:00",0.0,23.7,82.1,1007.6,322.9,0.8,1.4,303.5,0.00,20.5,24.2,"22:57:36",1
"23/09/26","23:10",0.0,23.3,82.7,1007.1,324.5,0.3,0.8,336.2,0.00,20.2,24.2,"23:01:12",1
"23/09/26","23:20",0.0,23.1,83.2,1007.6,317.5,0.5,1.1,322.6,0.00,20.1,24.2,"23:18:48",1
"23/09/26","23:30",0.0,23.1,84.0,1007.6,315.5,1.0,1.2,331.3,0.00,20.3,24.2,"23:22:32",1
"23/09/26","23:40",0.0,23.0,84.5,1007.8,311.1,1.1,2.1,333.0,0.00,20.3,24.1,"23:35:52",1
"23/09/26","23:50",0.0,23.2,84.4,1007.6,302.8,0.7,1.1,321.6,0.00,20.5,24.2,"23:40:08",1
"23/09/26","24:00",0.0,23.2,84.2,1007.8,320.3,1.0,1.6,328.0,0.00,20.4,24.2,"23:56:40",1
